| time (UTC) | temp C | wind direction | speed KPH | gust KPH | rain 1hr cm | rain 24hr cm | rain mn cm | humidity % | barometer mb |
| 20260504223704 | 18 | 230 | 12.9 | 27.4 | 0.00 | 0.00 | 0.00 | 48 | 1005.5 |
| 20260504223204 | 18 | 230 | 11.3 | 22.5 | 0.00 | 0.00 | 0.00 | 47 | 1005.5 |
| 20260504222703 | 18 | 230 | 11.3 | 24.1 | 0.00 | 0.00 | 0.00 | 46 | 1005.5 |
| 20260504222203 | 18 | 230 | 9.7 | 24.1 | 0.00 | 0.00 | 0.00 | 45 | 1005.5 |
| 20260504221704 | 18 | 230 | 9.7 | 20.9 | 0.00 | 0.00 | 0.00 | 45 | 1005.5 |
| 20260504220704 | 19 | 230 | 14.5 | 32.2 | 0.00 | 0.00 | 0.00 | 42 | 1005.4 |
| 20260504220203 | 20 | 230 | 12.9 | 25.7 | 0.00 | 0.00 | 0.00 | 40 | 1005.4 |
| 20260504215704 | 20 | 230 | 9.7 | 29.0 | 0.00 | 0.00 | 0.00 | 40 | 1005.4 |
| 20260504214704 | 20 | 230 | 14.5 | 27.4 | 0.00 | 0.00 | 0.00 | 38 | 1005.3 |
| 20260504214203 | 21 | 230 | 9.7 | 19.3 | 0.00 | 0.00 | 0.00 | 38 | 1005.4 |
| 20260504213703 | 21 | 230 | 6.4 | 24.1 | 0.00 | 0.00 | 0.00 | 37 | 1005.3 |
| 20260504212703 | 20 | 230 | 12.9 | 24.1 | 0.00 | 0.00 | 0.00 | 38 | 1005.3 |
| 20260504212203 | 20 | 230 | 8.0 | 14.5 | 0.00 | 0.00 | 0.00 | 38 | 1005.3 |
| 20260504211703 | 20 | 230 | 8.0 | 19.3 | 0.00 | 0.00 | 0.00 | 39 | 1005.3 |
| 20260504211204 | 20 | 230 | 9.7 | 22.5 | 0.00 | 0.00 | 0.00 | 38 | 1005.3 |
| 20260504210704 | 20 | 230 | 9.7 | 27.4 | 0.00 | 0.00 | 0.00 | 38 | 1005.3 |
| 20260504205703 | 20 | 240 | 14.5 | 27.4 | 0.00 | 0.00 | 0.00 | 37 | 1005.3 |
| 20260504204703 | 20 | 240 | 9.7 | 25.7 | 0.00 | 0.00 | 0.00 | 37 | 1005.3 |
| 20260504204203 | 20 | 240 | 11.3 | 22.5 | 0.00 | 0.00 | 0.00 | 36 | 1005.3 |
| 20260504203704 | 20 | 240 | 11.3 | 24.1 | 0.00 | 0.00 | 0.00 | 37 | 1005.3 |
| 20260504203204 | 20 | 240 | 9.7 | 22.5 | 0.00 | 0.00 | 0.00 | 37 | 1005.3 |
| 20260504202703 | 21 | 240 | 11.3 | 25.7 | 0.00 | 0.00 | 0.00 | 38 | 1005.3 |
| 20260504201704 | 20 | 240 | 14.5 | 24.1 | 0.00 | 0.00 | 0.00 | 37 | 1005.4 |
| 20260504201204 | 20 | 240 | 8.0 | 27.4 | 0.00 | 0.00 | 0.00 | 38 | 1005.4 |
| 20260504200704 | 20 | 240 | 8.0 | 19.3 | 0.00 | 0.00 | 0.00 | 37 | 1005.4 |
| 20260504200204 | 20 | 240 | 8.0 | 19.3 | 0.00 | 0.00 | 0.00 | 37 | 1005.5 |
| 20260504195703 | 20 | 230 | 9.7 | 22.5 | 0.00 | 0.00 | 0.00 | 38 | 1005.5 |
| 20260504195204 | 20 | 230 | 6.4 | 20.9 | 0.00 | 0.00 | 0.00 | 39 | 1005.6 |
| 20260504194703 | 19 | 230 | 11.3 | 20.9 | 0.00 | 0.00 | 0.00 | 39 | 1005.7 |
| 20260504194204 | 20 | 230 | 9.7 | 24.1 | 0.00 | 0.00 | 0.00 | 37 | 1005.8 |
| 20260504193703 | 20 | 230 | 14.5 | 24.1 | 0.00 | 0.00 | 0.00 | 37 | 1005.6 |
| 20260504193204 | 20 | 230 | 11.3 | 19.3 | 0.00 | 0.00 | 0.00 | 37 | 1005.7 |
| 20260504192703 | 20 | 230 | 11.3 | 27.4 | 0.00 | 0.00 | 0.00 | 38 | 1005.6 |
| 20260504192204 | 20 | 230 | 11.3 | 20.9 | 0.00 | 0.00 | 0.00 | 38 | 1005.6 |
| 20260504191703 | 20 | 230 | 9.7 | 19.3 | 0.00 | 0.00 | 0.00 | 36 | 1005.6 |
| 20260504191204 | 20 | 230 | 9.7 | 20.9 | 0.00 | 0.00 | 0.00 | 37 | 1005.6 |
| 20260504190704 | 20 | 230 | 9.7 | 20.9 | 0.00 | 0.00 | 0.00 | 36 | 1005.7 |
| 20260504190203 | 20 | 230 | 8.0 | 16.1 | 0.00 | 0.00 | 0.00 | 38 | 1005.7 |
| 20260504185704 | 20 | 250 | 8.0 | 22.5 | 0.00 | 0.00 | 0.00 | 36 | 1005.7 |
| 20260504185204 | 20 | 250 | 14.5 | 22.5 | 0.00 | 0.00 | 0.00 | 36 | 1005.8 |
| 20260504184204 | 20 | 250 | 11.3 | 19.3 | 0.00 | 0.00 | 0.00 | 36 | 1006.0 |
| 20260504183703 | 20 | 250 | 9.7 | 29.0 | 0.00 | 0.00 | 0.00 | 37 | 1006.1 |
| 20260504183204 | 20 | 250 | 14.5 | 29.0 | 0.00 | 0.00 | 0.00 | 35 | 1006.1 |
| 20260504182704 | 20 | 250 | 12.9 | 33.8 | 0.00 | 0.00 | 0.00 | 37 | 1006.1 |
| 20260504182204 | 20 | 250 | 9.7 | 25.7 | 0.00 | 0.00 | 0.00 | 37 | 1006.1 |
| 20260504181204 | 20 | 250 | 11.3 | 22.5 | 0.00 | 0.00 | 0.00 | 35 | 1006.2 |
| 20260504180704 | 20 | 250 | 8.0 | 22.5 | 0.00 | 0.00 | 0.00 | 36 | 1006.2 |
| 20260504180204 | 19 | 250 | 11.3 | 25.7 | 0.00 | 0.00 | 0.00 | 36 | 1006.3 |
| 20260504175703 | 19 | 210 | 8.0 | 19.3 | 0.00 | 0.00 | 0.00 | 36 | 1006.3 |
| 20260504175204 | 19 | 210 | 9.7 | 20.9 | 0.00 | 0.00 | 0.00 | 36 | 1006.4 |
| 20260504173704 | 19 | 210 | 14.5 | 25.7 | 0.00 | 0.00 | 0.00 | 37 | 1006.6 |
| 20260504173203 | 19 | 210 | 11.3 | 32.2 | 0.00 | 0.00 | 0.00 | 40 | 1006.7 |
| 20260504172704 | 18 | 210 | 14.5 | 32.2 | 0.00 | 0.00 | 0.00 | 37 | 1006.7 |
| 20260504172203 | 18 | 210 | 12.9 | 29.0 | 0.00 | 0.00 | 0.00 | 37 | 1006.8 |
| 20260504171704 | 18 | 210 | 12.9 | 27.4 | 0.00 | 0.00 | 0.00 | 40 | 1006.7 |
| 20260504170703 | 18 | 210 | 14.5 | 27.4 | 0.00 | 0.00 | 0.00 | 37 | 1006.5 |
| 20260504170204 | 18 | 210 | 11.3 | 27.4 | 0.00 | 0.00 | 0.00 | 38 | 1006.7 |
| 20260504150703 | 16 | 270 | 11.3 | 22.5 | 0.00 | 0.00 | 0.00 | 44 | 1008.2 |
| 20260504141204 | 16 | 230 | 11.3 | 25.7 | 0.00 | 0.00 | 0.00 | 44 | 1008.3 |
| 20260504140703 | 16 | 230 | 8.0 | 20.9 | 0.00 | 0.00 | 0.00 | 45 | 1008.4 |
| 20260504140204 | 15 | 230 | 14.5 | 32.2 | 0.00 | 0.00 | 0.00 | 46 | 1008.4 |
| 20260504130704 | 13 | 220 | 4.8 | 22.5 | 0.00 | 0.00 | 0.00 | 52 | 1009.2 |
| 20260504130204 | 13 | 221 | 4.8 | 9.7 | 0.00 | 0.00 | 0.00 | 51 | 1009.3 |
| 20260504120203 | 10 | 250 | 3.2 | 14.5 | 0.00 | 0.00 | 0.00 | 61 | 1009.4 |
| 20260504110704 | 7 | 220 | 4.8 | 16.1 | 0.00 | 0.00 | 0.00 | 63 | 1009.4 |
| 20260504110204 | 7 | 220 | 4.8 | 16.1 | 0.00 | 0.00 | 0.00 | 64 | 1009.3 |
| 20260504100204 | 5 | 230 | 3.2 | 4.8 | 0.00 | 0.00 | 0.00 | 69 | 1009.4 |
| 20260504081204 | 6 | 230 | 4.8 | 9.7 | 0.00 | 0.00 | 0.00 | 63 | 1009.0 |
| 20260504080704 | 6 | 230 | 3.2 | 8.0 | 0.00 | 0.00 | 0.00 | 64 | 1009.1 |
| 20260504080203 | 6 | 230 | 1.6 | 8.0 | 0.00 | 0.00 | 0.00 | 63 | 1009.0 |
| 20260504060204 | 6 | 250 | 1.6 | 3.2 | 0.00 | 0.00 | 0.00 | 64 | 1009.2 |
| 20260504050704 | 6 | 250 | 3.2 | 4.8 | 0.00 | 0.00 | 0.00 | 63 | 1009.2 |
| 20260504050204 | 6 | 250 | 3.2 | 4.8 | 0.00 | 0.00 | 0.00 | 64 | 1009.2 |
| 20260504045704 | 6 | 250 | 1.6 | 4.8 | 0.00 | 0.00 | 0.00 | 50 | 1009.2 |
| 20260504045204 | 6 | 250 | 1.6 | 8.0 | 0.00 | 0.00 | 0.00 | 63 | 1009.2 |
| 20260504044703 | 6 | 250 | 3.2 | 4.8 | 0.00 | 0.00 | 0.00 | 65 | 1009.2 |
| 20260504043704 | 6 | 250 | 3.2 | 8.0 | 0.00 | 0.00 | 0.00 | 63 | 1009.3 |
| 20260504043203 | 6 | 250 | 3.2 | 4.8 | 0.00 | 0.00 | 0.00 | 65 | 1009.3 |
| 20260504042704 | 6 | 250 | 0.0 | 3.2 | 0.00 | 0.00 | 0.00 | 64 | 1009.2 |
| 20260504042204 | 6 | 250 | 1.6 | 4.8 | 0.00 | 0.00 | 0.00 | 63 | 1009.3 |
| 20260504041204 | 6 | 250 | 1.6 | 4.8 | 0.00 | 0.00 | 0.00 | 61 | 1009.2 |
| 20260504040703 | 6 | 250 | 1.6 | 3.2 | 0.00 | 0.00 | 0.00 | 62 | 1009.1 |
| 20260504040204 | 5 | 250 | 1.6 | 3.2 | 0.00 | 0.00 | 0.00 | 50 | 1009.0 |
| 20260504035704 | 5 | 260 | 3.2 | 4.8 | 0.00 | 0.00 | 0.00 | 61 | 1009.1 |
| 20260504035204 | 5 | 260 | 3.2 | 4.8 | 0.00 | 0.00 | 0.00 | 60 | 1009.1 |
| 20260504034704 | 6 | 260 | 1.6 | 4.8 | 0.00 | 0.00 | 0.00 | 59 | 1009.0 |
| 20260504034204 | 6 | 260 | 1.6 | 3.2 | 0.00 | 0.00 | 0.00 | 58 | 1009.0 |
| 20260504033704 | 6 | 260 | 1.6 | 3.2 | 0.00 | 0.00 | 0.00 | 57 | 1008.8 |
| 20260504033203 | 6 | 260 | 1.6 | 4.8 | 0.00 | 0.00 | 0.00 | 58 | 1008.8 |
| 20260504032704 | 6 | 260 | 3.2 | 4.8 | 0.00 | 0.00 | 0.00 | 58 | 1008.8 |
| 20260504032204 | 6 | 260 | 3.2 | 4.8 | 0.00 | 0.00 | 0.00 | 58 | 1008.8 |
| 20260504031704 | 6 | 260 | 3.2 | 4.8 | 0.00 | 0.00 | 0.00 | 58 | 1008.7 |
| 20260504031203 | 6 | 260 | 3.2 | 4.8 | 0.00 | 0.00 | 0.00 | 59 | 1008.8 |
| 20260504030704 | 6 | 260 | 3.2 | 4.8 | 0.00 | 0.00 | 0.00 | 58 | 1008.7 |
| 20260504030203 | 6 | 260 | 3.2 | 4.8 | 0.00 | 0.00 | 0.00 | 45 | 1008.6 |
| 20260504025704 | 6 | 240 | 3.2 | 4.8 | 0.00 | 0.00 | 0.00 | 56 | 1008.6 |
| 20260504025203 | 6 | 240 | 3.2 | 4.8 | 0.00 | 0.00 | 0.00 | 55 | 1008.5 |
| 20260504024203 | 6 | 240 | 3.2 | 4.8 | 0.00 | 0.00 | 0.00 | 53 | 1008.4 |
| 20260504023703 | 6 | 240 | 3.2 | 4.8 | 0.00 | 0.00 | 0.00 | 53 | 1008.4 |
| 20260504023204 | 6 | 240 | 3.2 | 4.8 | 0.00 | 0.00 | 0.00 | 54 | 1008.4 |
| 20260504022704 | 6 | 240 | 3.2 | 4.8 | 0.00 | 0.00 | 0.00 | 54 | 1008.3 |
| 20260504022204 | 6 | 240 | 3.2 | 4.8 | 0.00 | 0.00 | 0.00 | 55 | 1008.3 |
| 20260504021704 | 6 | 240 | 3.2 | 4.8 | 0.00 | 0.00 | 0.00 | 57 | 1008.2 |
| 20260504021203 | 6 | 240 | 3.2 | 4.8 | 0.00 | 0.00 | 0.00 | 57 | 1008.2 |
| 20260504020704 | 6 | 240 | 3.2 | 4.8 | 0.00 | 0.00 | 0.00 | 57 | 1008.1 |
| 20260504020204 | 6 | 240 | 3.2 | 4.8 | 0.00 | 0.00 | 0.00 | 57 | 1008.1 |
| 20260504015704 | 6 | 230 | 3.2 | 4.8 | 0.00 | 0.00 | 0.00 | 57 | 1008.1 |
| 20260504015203 | 6 | 230 | 3.2 | 4.8 | 0.00 | 0.00 | 0.00 | 58 | 1008.0 |
| 20260504014203 | 6 | 230 | 3.2 | 4.8 | 0.00 | 0.00 | 0.00 | 58 | 1008.0 |
| 20260504013704 | 6 | 230 | 3.2 | 4.8 | 0.00 | 0.00 | 0.00 | 57 | 1008.0 |
| 20260504013204 | 6 | 230 | 3.2 | 4.8 | 0.00 | 0.00 | 0.00 | 57 | 1008.0 |
| 20260504012704 | 6 | 230 | 1.6 | 4.8 | 0.00 | 0.00 | 0.00 | 56 | 1008.0 |
| 20260504011704 | 7 | 230 | 1.6 | 3.2 | 0.00 | 0.00 | 0.00 | 54 | 1007.9 |
| 20260504010704 | 7 | 230 | 3.2 | 4.8 | 0.00 | 0.00 | 0.00 | 54 | 1007.9 |
| 20260504010203 | 6 | 231 | 3.2 | 3.2 | 0.00 | 0.00 | 0.00 | 55 | 1007.8 |
| 20260504005704 | 6 | 270 | 1.6 | 3.2 | 0.00 | 0.00 | 0.00 | 56 | 1007.8 |
| 20260504005203 | 6 | 270 | 1.6 | 4.8 | 0.00 | 0.00 | 0.00 | 56 | 1007.7 |
| 20260504004704 | 6 | 270 | 0.0 | 0.0 | 0.00 | 0.00 | 0.00 | 57 | 1007.6 |
| 20260504004204 | 6 | 270 | 0.0 | 0.0 | 0.00 | 0.00 | 0.00 | 55 | 1007.7 |
| 20260504003704 | 7 | 270 | 0.0 | 0.0 | 0.00 | 0.00 | 0.00 | 55 | 1007.5 |
| 20260504003204 | 7 | 270 | 0.0 | 1.6 | 0.00 | 0.00 | 0.00 | 50 | 1007.6 |
| 20260504002704 | 7 | 270 | 0.0 | 1.6 | 0.00 | 0.00 | 0.00 | 52 | 1007.4 |
| 20260504002204 | 8 | 270 | 0.0 | 0.0 | 0.00 | 0.00 | 0.00 | 51 | 1007.4 |
| 20260504001703 | 8 | 270 | 0.0 | 1.6 | 0.00 | 0.00 | 0.00 | 50 | 1007.3 |
| 20260504001204 | 8 | 270 | 1.6 | 3.2 | 0.00 | 0.00 | 0.00 | 49 | 1007.2 |
| 20260504000704 | 8 | 270 | 1.6 | 3.2 | 0.00 | 0.00 | 0.00 | 47 | 1007.2 |
| 20260504000204 | 8 | 270 | 1.6 | 3.2 | 0.00 | 0.00 | 0.00 | 47 | 1007.2 |
| 20260503235704 | 8 | 300 | 1.6 | 4.8 | 0.00 | 0.00 | 0.00 | 46 | 1007.1 |
| 20260503235203 | 9 | 300 | 1.6 | 4.8 | 0.00 | 0.00 | 0.00 | 46 | 1007.1 |
| 20260503234704 | 9 | 300 | 1.6 | 9.7 | 0.00 | 0.00 | 0.00 | 45 | 1007.2 |
| 20260503234204 | 9 | 300 | 3.2 | 9.7 | 0.00 | 0.00 | 0.00 | 46 | 1007.1 |
| 20260503233703 | 9 | 300 | 4.8 | 16.1 | 0.00 | 0.00 | 0.00 | 44 | 1007.1 |
| 20260503233203 | 9 | 300 | 4.8 | 9.7 | 0.00 | 0.00 | 0.00 | 44 | 1007.0 |
| 20260503232704 | 9 | 300 | 6.4 | 14.5 | 0.00 | 0.00 | 0.00 | 44 | 1006.8 |
| 20260503232203 | 10 | 300 | 8.0 | 19.3 | 0.00 | 0.00 | 0.00 | 44 | 1006.9 |
| 20260503231704 | 10 | 300 | 4.8 | 16.1 | 0.00 | 0.00 | 0.00 | 43 | 1006.9 |
| 20260503231204 | 10 | 300 | 4.8 | 16.1 | 0.00 | 0.00 | 0.00 | 43 | 1006.8 |
| 20260503230704 | 10 | 300 | 11.3 | 20.9 | 0.00 | 0.00 | 0.00 | 42 | 1006.7 |
| 20260503225704 | 10 | 300 | 6.4 | 24.1 | 0.00 | 0.00 | 0.00 | 42 | 1006.5 |
| 20260503225204 | 10 | 300 | 8.0 | 24.1 | 0.00 | 0.00 | 0.00 | 42 | 1006.4 |
| 20260503224704 | 10 | 300 | 9.7 | 20.9 | 0.00 | 0.00 | 0.00 | 42 | 1006.3 |
| 20260503224203 | 10 | 300 | 9.7 | 29.0 | 0.00 | 0.00 | 0.00 | 42 | 1006.3 |